DW8215 Weather Reports


Display with metric or nautical units.
time (UTC)temp
F
wind
direction
speed
MPH
gust
MPH
rain 1hr
in
rain 24hr
in
rain mn
in
humidity
%
barometer
mb
20260901110059 60 234 0.0 0.0 0.00 0.00 0.00 100 1012.4
20260901104556 61 234 0.0 0.0 0.00 0.00 0.00 100 1012.4
20260901103055 60 234 0.0 0.0 0.00 0.00 0.00 100 1012.4
20260901101605 60 234 0.0 0.0 0.00 0.00 0.00 100 1012.2
20260901100053 61 234 0.0 0.0 0.00 0.00 0.00 100 1012.2
20260901094552 61 234 0.0 0.0 0.00 0.01 0.00 100 1012.2
20260901093052 61 234 0.0 0.0 0.00 0.01 0.00 100 1012.2
20260901091552 61 234 0.0 0.0 0.00 0.01 0.00 100 1012.3
20260901090048 61 234 0.0 0.0 0.00 0.01 0.00 100 1012.4
20260901084548 62 234 0.0 0.0 0.00 0.04 0.00 100 1012.2
20260901083048 61 234 0.0 0.0 0.00 0.04 0.00 100 1012.3
20260901081550 62 234 0.0 0.0 0.00 0.04 0.00 100 1012.2
20260901080047 62 234 0.0 0.0 0.00 0.04 0.00 100 1012.0
20260901074547 62 234 0.0 0.0 0.00 0.05 0.00 100 1012.1
20260901073046 61 234 0.0 0.0 0.00 0.05 0.00 100 1012.1
20260901071546 61 234 0.0 0.0 0.00 0.05 0.00 100 1012.0
20260901070044 61 154 0.0 0.0 0.00 0.05 0.00 100 1012.0
20260901064545 61 154 0.0 0.0 0.00 0.05 0.00 100 1012.0
20260901063043 62 154 0.0 0.0 0.00 0.05 0.00 100 1012.0
20260901061543 61 154 0.0 0.0 0.00 0.05 0.00 100 1012.1
20260901060140 61 154 0.0 0.0 0.00 0.05 0.00 99 1012.2
20260901054544 61 154 0.0 0.0 0.00 0.05 0.00 100 1012.2
20260901053101 61 154 0.0 0.0 0.00 0.05 0.00 99 1012.3
20260901051559 61 154 0.0 0.0 0.00 0.05 0.00 100 1012.3
20260901050038 61 154 0.0 0.0 0.00 0.05 0.00 99 1012.4
20260901044551 61 154 0.0 0.0 0.00 0.05 0.00 99 1012.2
20260901043036 61 154 0.0 0.0 0.00 0.05 0.00 99 1012.1
20260901041535 62 154 0.0 0.0 0.00 0.05 0.00 99 1012.1
20260901040037 62 154 0.0 0.0 0.00 0.05 0.00 99 1012.2
20260901034532 62 154 0.0 0.0 0.00 0.05 0.05 99 1012.0
20260901033032 63 154 0.0 0.0 0.00 0.05 0.05 99 1011.9
20260901031532 63 154 0.0 0.0 0.00 0.05 0.05 98 1011.8
20260901030028 63 154 0.0 0.0 0.00 0.05 0.05 98 1011.9
20260901024526 64 154 0.0 0.0 0.00 0.05 0.05 99 1011.8
20260901023036 64 154 0.0 0.0 0.00 0.05 0.05 98 1011.8
20260901021528 64 154 0.0 0.0 0.00 0.05 0.05 99 1011.9
20260901020025 64 154 0.0 0.0 0.00 0.05 0.05 98 1011.9
20260901014524 65 154 0.0 0.0 0.00 0.05 0.05 98 1011.8
20260901013024 65 154 0.0 0.0 0.00 0.05 0.05 98 1011.7
20260901011526 66 154 0.0 0.0 0.00 0.05 0.05 97 1011.5
20260901010022 66 154 0.0 0.0 0.00 0.05 0.05 97 1011.3
20260901004523 67 154 0.0 0.0 0.00 0.05 0.05 96 1011.2
20260901003022 68 154 0.0 0.0 0.00 0.05 0.05 96 1011.2
20260901001521 68 154 0.0 0.0 0.00 0.05 0.05 96 1011.0
20260901000120 68 154 0.0 0.0 0.00 0.05 0.05 96 1011.1
20260831234520 68 154 0.0 1.0 0.00 0.05 0.05 95 1011.1
20260831233020 69 154 0.0 4.0 0.00 0.05 0.05 94 1011.1
20260831231518 70 150 1.0 3.0 0.00 0.05 0.05 93 1011.1
20260831230018 70 355 0.0 0.0 0.00 0.05 0.05 94 1010.9
20260831224518 70 355 0.0 3.0 0.00 0.05 0.05 93 1011.1
20260831223019 71 355 0.0 0.0 0.00 0.05 0.05 94 1010.9
20260831221517 72 39 0.0 0.0 0.00 0.05 0.05 93 1010.8
20260831220016 72 349 0.0 0.0 0.00 0.05 0.05 94 1010.6
20260831214515 72 349 0.0 0.0 0.00 0.05 0.05 93 1010.4
20260831213015 72 349 0.0 1.0 0.00 0.05 0.05 94 1010.4
20260831211515 72 355 0.0 1.0 0.00 0.05 0.05 93 1010.1
20260831210014 72 360 0.0 3.0 0.00 0.05 0.05 93 1010.1
20260831204514 72 355 0.0 1.0 0.00 0.06 0.05 93 1009.9
20260831203122 73 5 0.0 1.0 0.00 0.06 0.05 93 1009.7
20260831201512 73 22 0.0 6.0 0.00 0.06 0.05 93 1009.8
20260831200020 73 332 1.0 3.0 0.00 0.06 0.05 92 1009.9
20260831194510 73 5 0.0 3.0 0.00 0.06 0.05 92 1009.9
20260831193012 74 9 0.0 2.0 0.00 0.06 0.05 91 1010.0
20260831191509 74 5 0.0 2.0 0.00 0.06 0.05 93 1010.2
20260831190006 73 5 0.0 1.0 0.00 0.06 0.05 94 1010.1
20260831184506 73 355 0.0 0.0 0.00 0.06 0.05 93 1010.4
20260831183005 73 355 0.0 2.0 0.00 0.06 0.05 92 1010.4
20260831181505 74 129 0.0 0.0 0.00 0.06 0.05 91 1010.4
20260831180006 75 129 0.0 0.0 0.00 0.06 0.05 92 1010.5
20260831174515 75 115 0.0 4.0 0.00 0.06 0.05 91 1010.6
20260831173002 75 183 0.0 4.0 0.00 0.06 0.05 94 1010.3
20260831171556 73 5 0.0 0.0 0.00 0.06 0.05 97 1010.5
20260831170056 72 5 0.0 0.0 0.00 0.06 0.05 99 1010.5
20260831164558 72 5 0.0 0.0 0.00 0.06 0.05 100 1010.7
20260831163044 72 5 0.0 0.0 0.00 0.06 0.05 100 1011.0
20260831161540 71 5 0.0 0.0 0.00 0.06 0.05 100 1011.0
20260831160038 71 5 0.0 0.0 0.00 0.06 0.05 100 1011.2
20260831154535 70 5 0.0 0.0 0.00 0.06 0.05 100 1010.9
20260831153033 70 5 0.0 0.0 0.00 0.06 0.05 100 1010.8
20260831151530 69 5 0.0 0.0 0.00 0.06 0.05 100 1010.7
20260831150028 68 5 0.0 0.0 0.00 0.06 0.05 100 1010.8
20260831144525 68 355 0.0 0.0 0.00 0.06 0.05 100 1010.8
20260831143023 67 355 0.0 0.0 0.00 0.06 0.05 100 1011.0
20260831141522 66 355 0.0 0.0 0.00 0.06 0.05 100 1011.0
20260831140023 66 355 0.0 0.0 0.00 0.06 0.05 100 1011.1
20260831134521 66 355 0.0 0.0 0.00 0.06 0.05 100 1011.2
20260831133020 66 355 0.0 2.0 0.00 0.06 0.05 100 1011.1
20260831131519 66 355 0.0 0.0 0.00 0.06 0.05 100 1011.1
20260831130020 65 355 0.0 0.0 0.00 0.06 0.05 100 1011.3
20260831124517 65 355 0.0 0.0 0.00 0.06 0.05 100 1011.4
20260831123016 65 355 0.0 2.0 0.00 0.06 0.05 100 1011.3
20260831121515 65 16 0.0 2.0 0.00 0.06 0.05 100 1011.2
20260831120030 65 11 0.0 0.0 0.00 0.06 0.05 100 1011.0
20260831114526 64 11 0.0 0.0 0.00 0.06 0.05 100 1010.9
20260831113012 64 11 0.0 0.0 0.00 0.06 0.05 100 1010.7
20260831111511 64 11 0.0 0.0 0.00 0.06 0.05 100 1010.9